Weather in Shestakovo

Russia / Tyumen Oblast     56°41′36″N   66°58′28″E
temp.,
°C
wind,
m/s
gust,
m/s
humid.,
%
clouds,
%
prec.,
mm/h
press.,
hPa
HPBL,
m
12 april, mon
mon1223:00+4sw5157817 0.0 1033344
02:00+3sw5148594 0.0 1033318
05:00+3wsw41192100 0.0 1033238
08:00+5wsw3791100 0.0 1032203
11:00+6w379699 0.2 1033256
14:00+11wnw4673100 0.0 1033918
17:00+11nnw3665100 0.0 1034370
20:00+7nnw2581100 0.0 103688
13 april, tue
tue1323:00+4n227831 0.0 103824
02:00+3nnw22824 0.0 103918
05:00+2nw22790 0.0 104010
08:00+4wnw24720 0.0 1041183
11:00+8wnw35490 0.0 1041780
14:00+11w45420 0.0 10401030
17:00+11w35475 0.0 1038985
20:00+7wsw23675 0.0 103851
14 april, wed
wed1423:00+5sw3776100 0.0 1037127
02:00+4sw31180100 0.0 1035207
05:00+4sw41278100 0.0 1034273
08:00+6wsw51372100 0.0 1033401
11:00+12wsw610626 0.0 1031565
14:00+16w6959100 0.0 10291019
17:00+16w586178 0.0 10271022
20:00+12wsw3108094 0.0 1027209
15 april, thu
thu1523:00+10wsw379072 0.0 1026129
02:00+9wsw379236 0.0 1025121
05:00+8wsw369410 0.0 102593
08:00+11wsw378444 0.0 1024216
11:00+16w585631 0.0 10221042
14:00+18w574124 0.0 10211394
17:00+18w474221 0.0 10191283
20:00+13wsw386573 0.0 1019132
16 april, fri
fri1623:00+11wsw35785 0.0 101878
02:00+9sw36895 0.0 1016107
05:00+8sw368819 0.0 101597
08:00+9sw387437 0.0 1014193
11:00+16wsw46525 0.0 1012658
14:00+19wsw46405 0.0 10101957
17:00+18w453659 0.0 10082088
20:00+12nw3663100 0.0 1008132